Theta_e
321 322 323 326 326 326 326 326 325 325 325 326 325 327 326 326 323 304 300 309 312 329 325 306 303 304 305 304 304 301 293 290 291 290 293 294 294 294 294 293 292 293 293 293 294
320 320 321 322 324 325 326 326 325 324 324 325 325 325 326 324 304 300 316 326 329 328 303 302 301 303 300 300 299 296 291 293 294 293 294 294 295 294 293 291 291 290 291 291 292
319 318 319 320 322 324 325 325 325 324 324 324 324 325 325 319 302 300 324 326 326 322 304 302 302 301 298 299 297 294 291 294 295 296 295 294 293 293 292 291 294 292 289 290 290
319 319 319 320 321 322 324 324 325 324 324 323 324 324 322 307 293 303 325 324 322 309 303 300 300 298 295 294 296 293 294 295 297 297 295 294 293 292 292 296 295 293 292 290 289
318 319 320 320 321 321 322 323 324 324 323 323 324 323 308 298 300 307 318 313 303 302 300 299 298 296 294 293 294 293 293 295 296 295 294 293 293 293 291 294 292 290 289 289 289
317 318 319 320 321 321 321 322 324 323 322 323 324 321 301 295 305 305 302 302 300 300 298 299 297 297 295 294 293 293 294 294 295 294 293 293 292 292 293 289 288 288 288 289 289
317 317 318 320 321 321 321 322 323 322 322 323 323 311 300 300 305 303 303 299 299 299 299 298 299 297 296 293 295 293 291 292 292 293 293 292 290 290 292 288 288 287 287 288 288
317 316 317 319 320 321 321 321 321 321 321 323 322 306 298 304 304 303 301 300 300 300 300 299 299 298 294 295 292 290 289 287 291 292 292 292 288 293 289 288 289 286 286 287 287
316 316 316 318 319 320 320 320 319 320 322 321 306 301 297 309 302 303 299 299 299 299 299 302 298 294 293 290 288 288 285 285 288 291 290 290 289 292 288 287 288 286 286 286 287
315 315 316 318 319 320 319 319 316 315 312 308 304 299 297 297 302 302 298 299 297 298 298 297 293 291 289 288 283 284 284 285 285 289 288 287 288 293 290 287 289 289 287 286 286
315 315 315 317 319 320 313 300 298 293 297 296 295 294 297 302 302 299 298 298 297 295 291 292 290 287 289 289 287 287 286 285 286 287 287 286 288 292 294 287 289 288 286 286 286
316 314 314 316 319 319 300 297 296 296 292 297 295 296 299 301 295 298 297 294 293 289 291 289 288 291 291 289 288 285 284 284 286 286 286 285 286 290 291 293 293 291 288 287 287
316 314 313 315 318 302 297 298 303 299 291 294 296 296 297 301 295 296 296 292 290 288 288 287 288 290 290 286 286 284 283 283 285 284 284 282 281 283 287 289 290 291 290 288 288
316 315 314 316 305 299 298 300 302 298 282 286 291 297 299 298 293 296 294 293 290 288 288 289 289 289 286 287 287 284 285 284 283 282 279 283 280 282 286 288 289 291 287 289 287
316 315 315 313 303 297 300 302 299 291 274 287 291 298 296 294 292 292 294 292 289 289 289 287 286 285 286 287 287 285 284 283 282 280 277 279 277 282 281 285 289 291 288 287 287
316 315 314 307 301 299 301 297 293 282 275 284 292 291 291 291 291 292 291 292 291 289 286 288 287 287 288 285 284 285 283 282 278 277 273 281 280 279 281 285 287 289 289 288 285
316 314 311 307 301 300 299 294 281 275 284 283 287 289 288 288 289 290 288 286 286 283 283 285 284 285 286 285 285 283 282 278 275 273 277 276 276 284 285 286 288 291 289 286 284
315 314 311 308 304 302 294 290 276 280 282 288 289 287 287 288 287 288 286 284 287 285 282 283 282 284 286 287 284 282 283 278 271 273 279 275 275 283 286 290 288 286 285 283 283
315 309 307 306 304 301 292 282 281 283 286 286 288 285 285 288 287 285 284 284 287 289 287 282 282 282 283 283 284 281 280 283 277 263 270 280 281 284 285 285 284 284 281 282 282
310 306 306 308 305 301 285 285 284 288 287 288 284 286 281 285 285 285 284 286 288 290 291 286 283 281 281 281 279 282 283 278 277 272 268 279 281 283 284 286 287 285 285 283 282
308 300 304 307 309 299 287 285 285 290 290 287 284 282 284 284 286 283 284 286 289 288 290 288 287 282 280 280 280 278 278 278 280 277 273 274 281 283 286 286 287 287 285 284 283
305 295 302 308 295 295 288 287 292 289 290 289 287 286 284 285 284 283 284 289 290 289 286 287 286 283 284 278 279 280 281 282 278 275 273 273 280 287 286 287 286 287 285 284 283
301 300 302 306 289 289 287 287 289 287 288 288 287 288 287 285 284 284 286 289 289 289 286 287 283 279 281 279 278 279 279 280 280 279 278 274 281 287 284 285 285 286 283 283 282
301 292 295 297 297 293 290 288 288 290 290 288 287 288 286 284 289 286 283 286 288 289 294 293 285 284 281 283 280 277 277 281 282 280 280 280 283 288 290 289 287 285 282 283 282
303 294 293 286 290 293 292 290 289 286 289 290 287 288 287 284 286 285 287 286 286 289 288 288 284 286 287 288 284 281 281 281 279 282 279 283 283 287 290 291 292 292 292 289 280
301 295 296 293 293 291 292 289 289 291 288 287 287 287 289 286 286 285 287 287 287 281 283 284 283 285 283 286 285 283 284 285 284 283 282 283 283 290 292 292 292 292 292 290 287
307 306 298 293 292 289 289 290 291 293 293 292 290 289 287 288 292 293 293 291 290 288 282 281 281 278 279 284 282 276 283 285 286 287 286 282 287 291 290 290 291 291 291 291 290
Wind_Speed
18 20 20 21 20 20 20 19 18 17 13 12 13 11 9 7 5 1 2 4 3 3 1 1 3 2 3 3 3 3 5 2 4 5 3 3 3 2 1 5 3 5 4 1 12
18 18 20 21 21 20 19 19 17 17 16 13 12 10 11 9 1 2 1 2 2 1 2 2 2 3 3 3 3 4 4 6 4 4 2 4 4 6 3 3 5 4 2 4 14
18 19 19 20 21 21 19 17 16 16 16 14 11 9 9 7 2 5 1 4 4 3 4 3 3 3 3 1 1 2 5 4 3 4 2 4 3 5 6 6 10 10 9 12 11
18 19 19 20 20 21 21 18 16 15 16 15 11 8 9 1 5 2 3 3 3 5 2 3 4 4 3 2 1 1 1 3 2 3 4 4 7 4 8 6 1 6 14 15 16
17 17 18 19 20 21 22 20 17 16 14 14 10 4 2 2 7 3 4 4 3 2 4 3 4 3 3 3 2 2 2 3 3 3 3 5 7 6 9 9 1 6 12 17 15
17 17 17 18 19 21 22 22 20 16 15 13 7 4 3 4 2 3 2 2 3 3 2 3 4 3 5 2 3 3 2 4 3 2 2 4 2 0 4 6 6 10 15 15 16
16 18 18 18 19 21 22 22 21 18 15 9 4 2 3 12 3 2 4 2 2 1 4 1 4 1 5 3 1 2 3 5 4 2 4 4 8 12 4 5 8 11 12 13 15
16 18 19 18 20 21 23 23 21 18 9 2 3 1 7 1 2 3 3 3 4 4 5 3 3 6 2 4 5 2 4 2 3 4 1 5 11 9 6 8 12 11 11 14 16
17 17 18 18 19 20 24 26 19 7 1 3 1 4 8 3 2 2 0 5 4 3 4 3 5 3 3 4 4 5 4 4 7 8 3 6 11 6 5 7 11 11 14 14 12
16 17 18 18 20 21 26 23 8 1 1 1 1 2 1 3 3 3 1 5 3 4 3 5 5 3 4 4 7 6 4 5 7 4 4 5 18 18 7 9 18 14 13 14 16
13 17 17 17 19 22 14 6 7 5 5 6 4 4 2 0 0 1 2 4 3 4 5 2 2 9 13 9 2 3 4 8 5 4 4 10 17 20 20 9 17 15 12 16 22
11 15 17 17 18 21 2 5 2 3 9 4 4 5 4 2 2 4 3 6 5 7 5 4 12 9 5 4 5 3 3 8 8 2 6 8 19 15 17 22 16 19 13 17 13
8 12 16 16 18 4 3 3 0 3 2 9 5 4 4 7 6 6 10 4 5 6 7 9 4 5 7 4 6 5 7 5 8 5 4 7 10 8 8 9 13 13 10 13 18
8 7 13 14 2 3 2 1 0 1 2 9 5 4 3 5 4 1 4 5 2 10 9 8 2 6 4 7 8 5 6 3 2 3 5 3 18 4 7 11 9 11 11 14 15
9 6 6 4 4 1 2 1 2 2 7 6 3 1 1 5 5 1 1 1 7 7 8 9 7 5 5 8 10 7 3 4 1 3 3 4 6 5 3 8 19 10 9 10 12
12 9 2 1 1 3 3 2 3 6 11 4 4 5 3 1 1 2 1 4 1 4 3 6 1 6 6 3 1 5 4 4 4 2 2 9 11 5 7 11 9 10 7 7 8
11 10 7 4 3 1 2 2 3 8 4 5 4 4 2 6 4 6 6 6 7 5 6 1 5 3 3 5 3 3 6 6 6 3 11 5 4 13 7 12 13 14 8 6 7
12 10 6 4 4 4 3 5 11 7 9 3 4 2 5 7 5 6 5 5 7 2 3 5 9 10 6 7 8 6 9 9 10 6 20 4 12 11 17 16 7 6 7 5 7
13 3 4 5 7 3 3 7 11 10 9 9 3 4 6 4 5 6 9 7 10 16 11 8 10 2 2 2 4 6 7 3 3 2 6 7 14 7 6 13 4 13 6 10 9
6 5 8 11 11 4 3 19 9 9 8 5 15 12 10 9 9 9 10 7 7 17 7 2 6 1 3 3 0 6 5 4 2 4 8 18 31 19 12 16 11 12 15 11 8
6 4 3 15 8 4 10 11 6 8 7 9 10 7 10 11 10 8 9 5 8 6 7 6 6 3 2 10 13 4 3 1 2 5 7 13 18 5 8 10 13 13 8 9 10
5 6 4 14 11 6 15 12 10 8 6 11 6 11 12 10 8 8 11 11 9 8 12 7 6 9 16 1 3 3 9 10 7 8 4 3 37 3 1 9 8 8 7 7 8
3 4 3 10 9 11 3 5 4 5 10 11 12 9 7 8 7 10 11 6 11 10 12 10 2 3 10 2 4 7 8 7 2 2 19 8 33 7 4 7 10 9 9 9 9
4 5 3 7 9 11 15 11 10 6 18 4 6 7 4 5 12 10 5 2 4 4 3 11 8 12 21 18 6 6 8 19 19 17 14 32 34 38 36 18 11 9 11 14 11
6 5 8 9 17 19 13 8 20 10 8 13 9 24 17 13 14 19 14 7 2 3 3 11 13 19 25 30 8 3 10 16 20 31 24 34 22 37 40 20 27 19 23 15 11
6 5 5 4 14 24 20 18 27 22 12 10 19 12 23 25 25 25 19 12 10 0 6 2 17 14 24 28 21 18 26 25 27 37 29 30 33 44 31 24 27 28 26 20 17
5 5 4 11 15 13 21 28 31 24 18 22 20 19 17 28 29 25 15 8 11 11 10 8 6 7 26 20 6 5 34 29 28 37 26 31 46 37 28 24 28 25 24 24 20
Wind_Direction
10 7 5 3 3 0 357 353 350 345 349 346 341 332 321 330 304 195 222 177 184 330 121 283 90 71 79 76 68 136 69 210 235 159 244 159 151 26 46 123 231 200 176 302 135
7 3 1 360 357 355 355 351 345 340 338 344 339 332 321 322 48 285 175 302 275 188 124 127 100 119 60 93 22 89 112 217 191 205 253 183 185 169 167 169 242 251 197 124 143
2 0 359 356 350 350 349 348 343 336 331 334 334 332 326 317 344 227 164 318 323 171 134 127 118 109 88 90 20 186 166 208 227 212 190 165 214 162 160 229 221 207 164 165 168
357 356 352 348 348 346 344 343 340 335 325 328 328 333 333 289 234 189 325 335 14 131 112 79 43 69 93 114 290 159 197 200 266 184 153 196 131 221 201 230 98 213 169 168 179
352 350 346 343 343 343 339 337 336 330 322 323 315 331 67 338 262 357 332 347 105 86 52 91 62 137 134 149 149 163 239 218 277 266 223 143 231 234 239 239 153 145 164 181 186
347 345 343 341 338 336 335 330 328 326 318 319 301 278 108 238 154 6 312 8 39 91 81 61 159 186 110 122 145 181 263 276 294 261 242 230 279 236 239 137 164 170 190 191 191
342 341 339 338 336 331 328 324 321 318 315 307 265 271 125 234 142 64 98 97 34 97 119 138 135 140 137 128 151 124 316 320 221 210 239 168 287 230 197 173 192 203 200 198 204
334 337 336 333 332 328 324 318 317 309 299 224 187 148 239 105 173 104 120 63 49 39 96 122 117 106 81 123 32 80 60 38 213 159 223 151 265 267 161 168 226 214 208 204 207
326 330 332 329 328 325 321 314 313 309 118 123 159 139 265 141 167 135 144 151 98 56 54 78 64 88 49 93 7 1 248 222 300 197 142 180 272 235 155 205 243 221 215 210 211
320 324 327 326 326 325 322 309 286 11 74 121 27 27 249 226 142 137 77 133 117 116 75 53 54 78 41 97 234 225 244 251 240 223 207 209 256 271 221 212 241 232 215 209 213
316 319 324 324 324 325 338 358 11 345 24 195 198 231 233 169 293 83 148 105 101 70 175 12 115 211 211 202 182 162 196 236 246 232 205 230 249 258 271 234 251 242 212 211 221
314 318 320 319 320 322 346 75 153 163 309 267 242 273 230 187 249 224 136 156 155 197 128 43 234 198 142 162 166 164 211 259 284 262 198 272 262 258 254 257 248 248 226 222 221
303 318 320 315 315 6 25 122 153 164 226 291 212 204 202 152 217 230 153 144 159 174 188 179 220 107 137 156 163 205 193 225 232 338 255 313 267 237 274 248 264 244 223 213 212
273 299 318 320 46 327 43 353 258 200 29 267 243 261 110 138 261 157 201 146 185 206 165 232 232 157 161 216 150 235 207 203 290 40 250 360 294 244 246 270 255 257 203 220 208
247 254 304 11 290 280 178 281 287 58 291 263 195 327 97 171 130 257 299 61 184 181 136 238 162 160 183 219 161 225 120 136 144 212 27 256 273 233 14 266 264 266 221 219 209
216 218 238 120 75 278 338 333 75 43 249 286 148 170 148 205 187 115 134 48 113 143 254 255 343 171 199 69 130 137 98 68 65 103 245 222 202 164 183 211 257 268 238 211 207
209 212 155 146 210 132 39 46 44 193 293 245 220 167 187 187 203 175 167 180 175 123 233 261 208 172 157 102 27 92 66 322 315 334 250 140 214 259 228 232 220 236 245 215 213
195 183 206 185 140 132 77 63 223 195 199 106 122 99 207 158 220 172 144 220 234 113 121 188 267 179 182 197 179 170 167 167 247 258 289 140 246 271 222 242 234 248 251 231 225
162 171 184 211 150 115 130 206 211 179 195 166 116 172 231 239 195 151 205 206 207 173 190 181 267 88 25 111 138 180 189 170 92 121 298 238 261 288 221 259 261 252 230 242 230
177 191 205 168 152 130 107 233 212 195 150 153 203 182 201 199 173 188 179 191 214 197 192 233 295 244 155 145 16 181 164 95 351 251 261 269 276 268 214 236 238 246 237 226 235
182 215 186 146 148 173 220 227 221 217 171 171 212 236 213 193 196 203 221 226 199 177 171 148 154 219 120 209 174 139 212 225 185 156 200 278 281 185 185 199 216 235 228 212 217
170 210 161 152 179 202 221 186 181 209 202 236 191 215 213 189 215 226 218 223 146 146 158 199 167 229 241 94 358 178 192 171 185 238 240 135 273 343 79 213 217 234 205 223 223
210 215 188 188 205 207 251 303 240 206 204 195 216 192 188 194 239 193 228 176 148 156 168 172 231 317 278 338 5 211 197 220 323 327 226 191 261 133 127 199 206 216 232 232 225
178 166 189 209 238 228 213 215 228 216 236 205 214 181 158 230 226 255 218 145 166 178 73 160 167 206 240 259 134 193 206 217 219 243 235 235 260 277 263 269 249 239 233 226 217
198 182 184 184 224 229 231 214 226 216 223 202 241 229 219 237 238 243 256 243 161 196 167 174 226 215 247 262 249 237 244 219 216 240 229 253 248 257 269 265 270 263 268 264 215
236 176 144 225 220 220 213 222 236 239 173 216 229 216 222 230 231 251 235 234 205 76 183 203 245 230 248 256 259 249 253 256 247 250 261 262 262 257 277 284 283 275 275 270 248
244 207 187 175 204 204 216 222 230 235 240 233 225 227 221 225 224 239 255 219 215 219 194 181 200 222 252 255 239 217 244 259 266 264 260 268 263 271 269 266 259 265 267 265 264